Back to catalog

COSMOS 2181

AliveMilitaryPO
NORAD 21902·PAYLOAD·🇷🇺 Russia

Launched Mar 9, 1992 from Plesetsk Cosmodrome

Loading…

Next Passes (next 24 hours)

TLE

FreshSource: Space-Track

Epoch: Sep 14, 2026, 10:30 UTC

1 21902U 92012A   26257.43793527  .00000015  00000-0 -36530-7 0  9991
2 21902  82.9397 242.1012 0028185 188.8622 333.9659 13.72575088728567

Track COSMOS 2181 in real time with AllMySat

Download on the App Store